| time (UTC) | temp F | wind direction | speed knots | gust knots | rain 1hr in | rain 24hr in | rain mn in | humidity % | barometer mb |
| 20260505032229 | 73 | 321 | 0.9 | 0.9 | 0.00 | 0.00 | 0.00 | 83 | 1018.0 |
| 20260505031226 | 73 | 321 | 0.9 | 0.9 | 0.00 | 0.00 | 0.00 | 83 | 1017.0 |
| 20260505030224 | 73 | 321 | 0.9 | 0.9 | 0.00 | 0.00 | 0.00 | 83 | 1017.0 |
| 20260505025222 | 73 | 321 | 0.9 | 0.9 | 0.00 | 0.00 | 0.00 | 83 | 1018.0 |
| 20260505024221 | 73 | 321 | 0.9 | 0.9 | 0.00 | 0.00 | 0.00 | 83 | 1018.0 |
| 20260505023220 | 73 | 321 | 0.9 | 0.9 | 0.00 | 0.00 | 0.00 | 83 | 1018.0 |
| 20260505022218 | 73 | 321 | 0.9 | 0.9 | 0.00 | 0.00 | 0.00 | 83 | 1018.0 |
| 20260505021217 | 73 | 321 | 0.9 | 0.9 | 0.00 | 0.00 | 0.00 | 83 | 1018.0 |
| 20260505020215 | 73 | 321 | 0.9 | 0.9 | 0.00 | 0.00 | 0.00 | 83 | 1018.0 |
| 20260505015214 | 73 | 321 | 0.9 | 0.9 | 0.00 | 0.00 | 0.00 | 83 | 1018.0 |
| 20260505014213 | 73 | 321 | 0.9 | 0.9 | 0.00 | 0.00 | 0.00 | 83 | 1018.0 |
| 20260505013211 | 73 | 321 | 0.9 | 0.9 | 0.00 | 0.00 | 0.00 | 83 | 1018.0 |
| 20260505012210 | 73 | 321 | 0.9 | 1.7 | 0.00 | 0.00 | 0.00 | 83 | 1017.0 |
| 20260505011207 | 74 | 321 | 0.9 | 1.7 | 0.00 | 0.00 | 0.00 | 83 | 1017.0 |
| 20260505010205 | 74 | 321 | 0.9 | 1.7 | 0.00 | 0.00 | 0.00 | 84 | 1017.0 |
| 20260505005202 | 74 | 321 | 0.9 | 1.7 | 0.00 | 0.00 | 0.00 | 84 | 1017.0 |
| 20260505004201 | 74 | 321 | 0.9 | 1.7 | 0.00 | 0.00 | 0.00 | 83 | 1017.0 |
| 20260505003159 | 75 | 321 | 0.9 | 1.7 | 0.00 | 0.00 | 0.00 | 85 | 1017.0 |
| 20260505002156 | 76 | 274 | 0.9 | 0.9 | 0.00 | 0.00 | 0.00 | 81 | 1017.0 |
| 20260505001155 | 76 | 274 | 0.9 | 0.9 | 0.00 | 0.00 | 0.00 | 81 | 1017.0 |
| 20260505000153 | 76 | 274 | 0.9 | 0.9 | 0.00 | 0.00 | 0.00 | 83 | 1017.0 |
| 20260504235152 | 76 | 274 | 0.9 | 0.9 | 0.00 | 0.00 | 0.00 | 83 | 1017.0 |
| 20260504234151 | 76 | 274 | 0.9 | 0.9 | 0.00 | 0.00 | 0.00 | 80 | 1017.0 |
| 20260504233149 | 77 | 274 | 0.9 | 0.9 | 0.00 | 0.00 | 0.00 | 80 | 1017.0 |
| 20260504232148 | 78 | 221 | 1.7 | 1.7 | 0.00 | 0.00 | 0.00 | 74 | 1016.0 |
| 20260504231145 | 78 | 221 | 1.7 | 1.7 | 0.00 | 0.00 | 0.00 | 75 | 1016.0 |
| 20260504230144 | 78 | 221 | 1.7 | 1.7 | 0.00 | 0.00 | 0.00 | 76 | 1016.0 |
| 20260504225142 | 78 | 221 | 1.7 | 1.7 | 0.00 | 0.00 | 0.00 | 76 | 1016.0 |
| 20260504224140 | 78 | 221 | 1.7 | 1.7 | 0.00 | 0.00 | 0.00 | 72 | 1016.0 |
| 20260504223137 | 79 | 158 | 4.3 | 4.3 | 0.00 | 0.00 | 0.00 | 62 | 1016.0 |
| 20260504222136 | 79 | 158 | 4.3 | 4.3 | 0.00 | 0.00 | 0.00 | 62 | 1015.0 |
| 20260504221135 | 79 | 158 | 4.3 | 4.3 | 0.00 | 0.00 | 0.00 | 62 | 1015.0 |
| 20260504220133 | 79 | 158 | 4.3 | 4.3 | 0.00 | 0.00 | 0.00 | 62 | 1015.0 |
| 20260504215132 | 79 | 158 | 4.3 | 4.3 | 0.00 | 0.00 | 0.00 | 62 | 1015.0 |
| 20260504214131 | 79 | 158 | 4.3 | 4.3 | 0.00 | 0.00 | 0.00 | 62 | 1015.0 |
| 20260504213129 | 79 | 158 | 4.3 | 4.3 | 0.00 | 0.00 | 0.00 | 62 | 1015.0 |
| 20260504212127 | 79 | 158 | 4.3 | 4.3 | 0.00 | 0.00 | 0.00 | 62 | 1015.0 |
| 20260504211114 | 79 | 158 | 4.3 | 4.3 | 0.00 | 0.00 | 0.00 | 62 | 1015.0 |
| 20260504210113 | 79 | 158 | 4.3 | 4.3 | 0.00 | 0.00 | 0.00 | 62 | 1015.0 |
| 20260504205106 | 79 | 158 | 4.3 | 4.3 | 0.00 | 0.00 | 0.00 | 62 | 1015.0 |
| 20260504204105 | 79 | 158 | 4.3 | 4.3 | 0.00 | 0.00 | 0.00 | 62 | 1015.0 |
| 20260504203103 | 79 | 158 | 4.3 | 4.3 | 0.00 | 0.00 | 0.00 | 62 | 1015.0 |
| 20260504202100 | 79 | 158 | 4.3 | 4.3 | 0.00 | 0.00 | 0.00 | 62 | 1015.0 |
| 20260504201059 | 79 | 158 | 4.3 | 4.3 | 0.00 | 0.00 | 0.00 | 62 | 1015.0 |
| 20260504200058 | 79 | 158 | 4.3 | 4.3 | 0.00 | 0.00 | 0.00 | 62 | 1015.0 |
| 20260504195056 | 79 | 158 | 4.3 | 4.3 | 0.00 | 0.00 | 0.00 | 62 | 1015.0 |
| 20260504194055 | 79 | 158 | 4.3 | 4.3 | 0.00 | 0.00 | 0.00 | 62 | 1015.0 |
| 20260504193053 | 79 | 158 | 4.3 | 4.3 | 0.00 | 0.00 | 0.00 | 62 | 1015.0 |
| 20260504192052 | 79 | 158 | 4.3 | 4.3 | 0.00 | 0.00 | 0.00 | 62 | 1016.0 |
| 20260504191051 | 79 | 158 | 4.3 | 4.3 | 0.00 | 0.00 | 0.00 | 62 | 1016.0 |
| 20260504190049 | 79 | 158 | 4.3 | 4.3 | 0.00 | 0.00 | 0.00 | 62 | 1016.0 |
| 20260504185048 | 79 | 158 | 4.3 | 4.3 | 0.00 | 0.00 | 0.00 | 62 | 1016.0 |
| 20260504184046 | 79 | 158 | 4.3 | 4.3 | 0.00 | 0.00 | 0.00 | 62 | 1016.0 |
| 20260504183044 | 79 | 158 | 4.3 | 4.3 | 0.00 | 0.00 | 0.00 | 62 | 1016.0 |
| 20260504182042 | 79 | 158 | 4.3 | 4.3 | 0.00 | 0.00 | 0.00 | 62 | 1016.0 |
| 20260504181040 | 79 | 158 | 4.3 | 4.3 | 0.00 | 0.00 | 0.00 | 62 | 1016.0 |
| 20260504180039 | 79 | 158 | 4.3 | 4.3 | 0.00 | 0.00 | 0.00 | 62 | 1016.0 |
| 20260504175038 | 79 | 158 | 4.3 | 4.3 | 0.00 | 0.00 | 0.00 | 62 | 1016.0 |
| 20260504174035 | 79 | 158 | 4.3 | 4.3 | 0.00 | 0.00 | 0.00 | 62 | 1016.0 |
| 20260504173034 | 79 | 158 | 4.3 | 4.3 | 0.00 | 0.00 | 0.00 | 62 | 1016.0 |
| 20260504172032 | 79 | 158 | 4.3 | 4.3 | 0.00 | 0.00 | 0.00 | 62 | 1017.0 |
| 20260504171031 | 79 | 158 | 4.3 | 4.3 | 0.00 | 0.00 | 0.00 | 62 | 1017.0 |
| 20260504151012 | 75 | 140 | 3.5 | 3.5 | 0.00 | 0.00 | 0.00 | 72 | 1017.0 |
| 20260504141001 | 75 | 140 | 3.5 | 3.5 | 0.00 | 0.00 | 0.00 | 72 | 1017.0 |
| 20260504081909 | 70 | 352 | 0.9 | 0.9 | 0.00 | 0.00 | 0.00 | 87 | 1017.0 |
| 20260504080908 | 70 | 352 | 0.9 | 0.9 | 0.00 | 0.00 | 0.00 | 87 | 1017.0 |
| 20260504045842 | 70 | 352 | 0.9 | 0.9 | 0.00 | 0.00 | 0.00 | 87 | 1018.0 |
| 20260504044841 | 70 | 352 | 0.9 | 0.9 | 0.00 | 0.00 | 0.00 | 87 | 1018.0 |
| 20260504043839 | 70 | 352 | 0.9 | 0.9 | 0.00 | 0.00 | 0.00 | 87 | 1018.0 |
| 20260504042838 | 70 | 352 | 0.9 | 0.9 | 0.00 | 0.00 | 0.00 | 87 | 1018.0 |
| 20260504041836 | 70 | 352 | 0.9 | 0.9 | 0.00 | 0.00 | 0.00 | 87 | 1018.0 |
| 20260504040834 | 70 | 352 | 0.9 | 0.9 | 0.00 | 0.00 | 0.00 | 87 | 1018.0 |
| 20260504035833 | 70 | 352 | 0.9 | 0.9 | 0.00 | 0.00 | 0.00 | 87 | 1018.0 |
| 20260504034831 | 70 | 352 | 0.9 | 1.7 | 0.00 | 0.00 | 0.00 | 87 | 1018.0 |
| 20260504033829 | 73 | 327 | 0.9 | 0.9 | 0.00 | 0.00 | 0.00 | 86 | 1018.0 |